This is the latest recevied weather packets stored in our database for station/object W0CHP-13. If no packets are shown the sender has not sent any weather packets the latest 10 day(s).
| Time | Temp. | Humidity | Pressure | Rain* | Wind** | Luminosity | Snow |
|---|---|---|---|---|---|---|---|
| 1788625158 | 23.89° C | 86% | 1016.5 hPa | 0 mm | - | 127 W/m² | - |
| 1788624557 | 23.89° C | 86% | 1016.5 hPa | 0 mm | - | 90 W/m² | - |
| 1788623955 | 23.89° C | 86% | 1016.5 hPa | 0 mm | - | 78 W/m² | - |
| 1788623357 | 23.89° C | 86% | 1016.1 hPa | 0 mm | - | 70 W/m² | - |
| 1788622756 | 23.89° C | 86% | 1016.1 hPa | 0 mm | - | 70 W/m² | - |
| 1788622158 | 23.89° C | 86% | 1016.5 hPa | 0 mm | - | 61 W/m² | - |
| 1788621559 | 23.89° C | 87% | 1016.1 hPa | 0 mm | - | 72 W/m² | - |
| 1788621256 | 23.89° C | 88% | 1016.1 hPa | 0 mm | - | 77 W/m² | - |
| 1788620655 | 23.33° C | 87% | 1015.8 hPa | 0 mm | - | 72 W/m² | - |
| 1788620057 | 23.33° C | 88% | 1015.8 hPa | 0 mm | - | 62 W/m² | - |
| 1788619455 | 23.33° C | 88% | 1015.8 hPa | 0 mm | - | 62 W/m² | - |
| 1788618858 | 23.33° C | 88% | 1015.8 hPa | 0 mm | - | 48 W/m² | - |
| 1788618615 | 23.33° C | 88% | 1015.8 hPa | 0 mm | - | 49 W/m² | - |
| 1788617958 | 23.33° C | 89% | 1015.5 hPa | 0 mm | - | 45 W/m² | - |
| 1788617357 | 22.78° C | 89% | 1015.4 hPa | 0 mm | - | 41 W/m² | - |
| 1788616758 | 22.78° C | 89% | 1015.4 hPa | 0 mm | - | 36 W/m² | - |
| 1788616156 | 22.78° C | 89% | 1015.1 hPa | 0 mm | - | 30 W/m² | - |
| 1788615557 | 22.78° C | 89% | 1015.1 hPa | 0 mm | - | 33 W/m² | - |
| 1788614958 | 22.78° C | 89% | 1015.1 hPa | 0 mm | - | 26 W/m² | - |
| 1788614355 | 22.78° C | 88% | 1014.8 hPa | 0 mm | - | 23 W/m² | - |
| 1788613757 | 22.78° C | 88% | 1014.4 hPa | 0 mm | - | 29 W/m² | - |
| 1788613156 | 22.78° C | 88% | 1014.4 hPa | 0 mm | - | 29 W/m² | - |
| 1788612555 | 22.78° C | 88% | 1014.4 hPa | 0 mm | - | 24 W/m² | - |
| 1788611957 | 22.78° C | 88% | 1014.8 hPa | 0 mm | - | 22 W/m² | - |
| 1788611358 | 22.78° C | 87% | 1014.4 hPa | 0 mm | - | 20 W/m² | - |
* Rain latest hour (hover to see other rain measurements)
** Current wind speed in m/s (hover to see current wind gust speed)